Cloud_Cover
5 62 99 100 100 94 100 100 100 47 64 100 100 100 100 100 91 100 100 100 100 100 100 100 100 100 73 100 100 98 7 0 0 0 0 0 0 0 0 0 0 0 0 63 5 6 12 90 7
34 5 5 75 100 77 88 100 95 100 100 14 100 82 87 100 100 98 100 100 100 100 100 100 100 100 100 100 100 100 100 86 5 0 0 0 0 0 0 0 0 2 54 100 68 36 88 100 50
8 9 4 5 13 90 84 52 31 91 79 91 100 6 64 19 100 95 17 100 100 100 100 100 100 100 100 100 100 100 100 100 91 59 6 2 0 4 5 0 0 5 88 100 100 7 41 9 52
5 19 4 6 4 43 59 63 8 36 58 100 98 4 100 99 100 100 3 100 100 100 100 100 100 100 100 100 100 100 100 100 100 100 95 99 76 26 20 64 4 27 100 100 100 7 42 5 38
1 11 6 57 5 6 66 59 5 86 83 48 100 5 75 100 9 100 26 35 100 100 100 100 100 100 100 100 100 100 100 100 100 100 98 100 100 100 100 100 100 100 100 12 80 16 5 5 38
0 1 3 5 64 43 7 19 36 10 11 70 83 20 2 4 5 25 16 20 39 96 100 100 100 100 100 100 100 100 100 100 100 100 92 81 100 100 100 100 100 100 100 100 100 22 5 5 5
0 0 0 0 3 100 92 30 5 5 6 5 14 96 10 8 5 13 5 89 81 54 84 100 100 100 100 100 100 100 100 100 100 100 100 100 92 100 100 100 100 100 100 100 100 77 14 71 32
0 0 0 0 0 0 0 0 0 3 65 19 1 5 78 97 59 9 5 2 3 97 86 90 100 100 100 100 100 100 100 100 100 100 100 100 97 100 100 99 73 100 100 100 100 84 27 99 50
0 0 0 0 0 0 0 0 0 0 0 0 0 0 1 0 0 0 1 3 0 59 98 76 100 100 100 100 100 100 100 100 100 100 100 100 74 100 100 100 80 99 94 100 96 16 75 33 98
4 0 0 0 0 0 0 0 0 0 0 0 0 0 0 0 0 0 0 0 0 0 7 7 5 12 99 100 100 100 100 100 100 100 100 100 100 100 100 100 100 100 84 100 100 41 80 70 72
60 5 5 4 0 0 0 0 0 0 0 0 0 0 0 0 0 0 0 0 0 0 0 0 0 2 2 100 100 100 100 100 100 100 100 100 100 100 100 100 100 100 100 100 100 100 25 51 100
86 49 5 5 4 5 5 0 0 0 0 2 0 0 0 0 0 0 0 0 0 0 0 0 3 0 0 1 15 100 100 100 100 100 100 100 100 100 100 100 100 100 100 100 100 100 24 80 100
99 40 32 87 57 82 6 3 0 0 1 0 0 0 0 0 0 0 0 0 0 0 0 0 3 4 5 5 5 25 100 100 100 100 100 100 100 100 100 100 100 100 100 100 100 100 98 78 100
100 33 57 53 67 99 72 8 0 0 0 0 0 0 0 0 0 0 0 0 0 0 0 0 5 5 5 5 5 5 47 100 100 100 100 100 100 100 100 100 100 100 100 100 100 84 96 91 100
83 98 94 60 100 100 11 5 0 0 0 0 0 0 0 0 0 0 0 0 0 0 0 0 3 5 5 5 5 5 5 100 100 100 100 100 100 100 100 100 100 100 100 100 100 100 92 100 100
100 100 91 100 100 76 10 1 0 0 0 0 0 0 0 0 0 0 0 0 0 0 0 0 0 5 5 5 6 5 5 55 100 100 100 100 100 100 100 100 100 100 100 100 100 100 100 95 100
100 88 100 100 100 89 5 0 0 0 0 0 0 0 0 0 0 0 0 0 0 0 0 0 3 5 5 5 10 18 8 16 66 100 100 100 100 100 100 100 100 100 100 100 100 100 100 100 100
100 100 100 39 62 5 5 4 0 0 0 0 0 0 0 0 0 0 0 0 0 0 0 0 5 5 5 18 56 78 20 23 31 100 100 100 100 100 100 100 100 100 100 100 100 100 100 100 100
100 100 100 100 6 5 5 1 0 0 0 0 0 0 0 0 0 0 0 0 0 0 0 4 5 5 63 95 100 100 100 62 12 95 100 100 100 100 100 100 100 100 100 100 100 100 100 100 69
86 100 100 98 5 53 5 4 0 0 4 5 5 4 0 0 0 0 0 0 0 0 0 5 5 28 95 94 100 100 100 73 55 61 100 100 100 100 100 100 100 100 100 100 100 100 100 100 100
97 12 11 5 29 14 5 5 0 2 5 5 5 5 3 0 0 0 2 4 5 5 5 5 5 33 93 85 100 100 86 20 10 32 100 100 100 100 100 100 100 100 100 100 100 100 100 100 100
34 92 13 22 14 5 5 4 0 5 4 4 4 5 5 0 0 0 0 5 5 5 5 5 5 34 92 76 100 100 100 100 50 46 84 100 100 100 100 100 100 100 100 100 100 100 100 100 100
99 81 19 6 5 5 3 4 0 2 0 0 0 0 4 0 0 0 0 5 5 5 5 5 5 64 68 96 98 100 100 82 77 57 86 100 100 100 100 100 100 100 100 100 100 100 100 100 100
71 5 5 5 5 0 2 0 0 0 0 0 0 0 0 0 0 0 0 1 5 5 5 5 5 65 79 100 95 100 100 91 82 61 100 100 100 100 100 100 100 100 100 100 100 100 100 100 100
5 8 5 5 3 0 2 3 0 0 0 0 0 0 0 0 5 5 5 5 5 61 44 17 47 72 81 100 92 100 97 95 95 96 100 100 100 100 100 100 100 100 100 100 100 100 100 100 100
9 35 5 5 5 0 5 2 0 0 0 0 0 0 1 4 4 5 5 5 5 48 9 5 98 80 81 96 84 99 100 100 99 100 100 100 100 100 100 100 100 100 100 100 100 100 100 100 100
62 8 5 5 5 4 42 0 0 0 0 1 0 2 4 0 0 1 5 5 5 87 68 51 82 100 88 100 97 95 97 100 96 100 100 100 100 100 100 100 100 100 100 100 100 100 100 100 100
72 13 8 17 3 0 2 4 0 0 0 0 0 0 0 0 1 4 5 5 5 62 54 72 100 100 100 100 100 100 100 100 97 100 100 100 100 100 100 100 100 100 100 100 100 100 100 100 100
99 73 12 10 18 0 1 4 0 0 0 0 0 0 0 1 2 4 5 5 5 64 5 96 99 100 100 100 100 100 100 100 100 100 100 100 100 100 100 100 100 100 100 100 100 100 100 100 100
100 79 47 100 86 40 5 1 5 0 0 0 0 0 1 5 4 5 5 5 5 5 16 97 100 100 100 100 100 100 100 99 100 100 100 100 100 100 100 100 100 100 100 100 100 100 100 100 100